Regional Weather Roundup
Issued by NWS Upton, NY

Current Version | Previous Version | Text Only | Print | Product List | Glossary Off
Versions: 1 2 3 4 5 6 7 8 9 10 11 12 13 14 15 16 17 18 19 20 21 22 23 24 25 26 27 28 29 30 31 32 33 34 35 36 37 38 39 40 41 42 43 44 45 46 47 48 49 50
728 ASUS41 KOKX 220409 RWROKX REGIONAL WEATHER ROUNDUP NATIONAL WEATHER SERVICE NEW YORK NY 1200 AM EDT FRI SEP 22 2017 NOTE: "FAIR" INDICATES FEW OR NO CLOUDS BELOW 12,000 FEET WITH NO SIGNIFICANT WEATHER AND/OR OBSTRUCTIONS TO VISIBILITY. NYZ071-072-176-178-NJZ106-104-220500- NEW YORK CITY METRO AREA CITY SKY/WX TMP DP RH WIND PRES REMARKS Central Park CLOUDY 73 62 68 VRB3 30.04F Bronx Bot Gard N/A 70 59 68 N6 30.03S LaGuardia APRT CLOUDY 73 60 63 N9 30.00F Kennedy INTL CLOUDY 73 55 53 N13G21 30.01F Breezy Point N/A 72 N/A N/A N9 N/A Newark/Liberty CLOUDY 73 61 65 N10 30.01F Teterboro CLOUDY 71 62 73 N5 30.01S $$ NYZ177-179-078>081-220500- LONG ISLAND NEW YORK CITY SKY/WX TMP DP RH WIND PRES REMARKS Jones Beach N/A 70 N/A N/A N14G20 N/A Matinecock PT N/A 72 N/A N/A NE16 N/A Farmingdale MOCLDY 69 54 58 NE9 30.00S MacArthur/ISP CLOUDY 70 52 52 N13 29.98F Shirley CLOUDY 72 51 47 N15G28 29.98F Mt Sinai Harb N/A 70 N/A N/A N21 N/A Westhampton CLOUDY 69 49 48 N15G26 29.97F East Hampton CLOUDY 68 50 52 N13G28 29.95S Montauk N/A 67 55 65 N15G28 29.96R $$ NYZ052-065-067-220500- HUDSON VALLEY CITY SKY/WX TMP DP RH WIND PRES REMARKS White Plains CLOUDY 67 59 75 N7 30.03S Larchmont Harb N/A 70 N/A N/A N8 N/A Croton On Huds N/A 68 N/A N/A N1 N/A Newburgh MOCLDY 68 63 83 NE9 30.07S Montgomery CLOUDY 65 59 81 NE5 30.05F Poughkeepsie CLOUDY 66 61 84 N6 30.04S Albany CLOUDY 66 55 67 N6 30.10S $$ NJZ001-105-106-008-010-013-015-019>022-104-220500- NEW JERSEY CITY SKY/WX TMP DP RH WIND PRES REMARKS Newark/Liberty CLOUDY 73 61 65 N10 30.01F Teterboro CLOUDY 71 62 73 N5 30.01S Caldwell CLOUDY 69 63 81 CALM 30.04S Somerville NOT AVBL Linden FAIR 73 59 61 CALM 30.02S Perth Amboy N/A 72 N/A N/A N6 N/A Sussex MOCLDY 62 61 96 CALM 30.06F Andover N/A 63 62 97 CALM 30.07S Trenton CLOUDY 70 62 76 N7 30.02F Millville PTCLDY 70 69 97 CALM 30.02S Atlantic City MOCLDY 71 65 81 CALM 30.01F Wrightstown CLOUDY 67 62 83 N6 29.99F Toms River CLOUDY 67 63 87 NW7 30.01F Belmar MOCLDY 67 62 84 NW5 30.02F $$ PAZ047>061-062-071-220500- EASTERN PENNSYLVANIA CITY SKY/WX TMP DP RH WIND PRES REMARKS Philadelphia CLOUDY 74 61 63 NE6 30.03S Allentown PTCLDY 69 63 81 NW3 30.06S Scranton CLOUDY 63 61 93 CALM 30.10R $$ CTZ002-004>006-009-010-012-RIZ004-006-007-MAZ004-011-015-220500- SOUTHERN NEW ENGLAND IN CT CITY SKY/WX TMP DP RH WIND PRES REMARKS Bradley INTL CLOUDY 67 49 52 N12 30.04F Hartford CLOUDY 68 50 52 N13G22 30.02F Danbury MOCLDY 69 51 52 NE10 30.05F Wtrbury/Oxford CLOUDY 65 50 58 N15 30.04F Norwalk Harbor N/A 68 N/A N/A N9 N/A Bridgeport CLOUDY 70 50 49 NE14G22 30.01S Meriden CLOUDY 68 49 50 N9 30.01F New Haven CLOUDY 69 50 50 N13G20 30.00F Chester FAIR 68 50 52 N10G23 29.99F Groton MOCLDY 68 49 50 N14 29.95S Wilimantic CLOUDY 68 49 50 N17 30.01F IN RI CITY SKY/WX TMP DP RH WIND PRES REMARKS Providence CLOUDY 66 54 65 N31G41 29.98S Block Island LGT RAIN 64 56 75 N24G36 29.91F Westerly CLOUDY 68 52 56 N21G33 29.95S IN MA CITY SKY/WX TMP DP RH WIND PRES REMARKS Boston CLOUDY 65 53 65 N22G31 30.02F Worcester CLOUDY 62 46 55 N18G26 30.05F Westfield CLOUDY 62 52 69 N8 30.06S Provincetown LGT RAIN 59 57 93 NE25G39 29.93S FOG Nantucket HVY RAIN 60 60 100 N32G45 29.78S FOG $$ ANZ330-335-338-340-345-350-353-355-220500- COASTAL MARINE OBSERVATIONS STATION/POSITION TIME SKY/WX TEMP WIND PRES VSBY WAVE AIR SEA DIR/SP/G HT/PER (UTC) (F) (DEG/KT/KT) (MB) (MI) (FT/S) NY HARB ENTRANCE 0350 72 70 360/ 10/ 14 1014.9 5/11 20 S FIRE ISLAND 0350 70 67 10/ 17/ 21 1014.4 8/10 GREAT SOUTH BAY 0315 71 70 360/ 16/ 19 N/A 23 SSW MONTAUK P 0350 67 65 1013.1 9/10 15 E BARNEGAT LI 0330 69 N/A 6/10 HUDSON CANYON 0350 69 69 350/ 25/ 35 1011.9 11/ 9 KINGS POINT 0348 72 71 60/ 9/ 14 1016.9 EXECUTION ROCKS 0345 72 30/ 12/ 16 N/A WESTERN LI SOUND NOT AVBL CENTRAL LI SOUND 0330 70 20/ 16/ 19 N/A 2 EASTERN LI SOUND NOT AVBL ROBBINS REEF 0348 74 340/ 10/ 12 1016.9 $$ >>>>>>>>>>>>>>>>>>>>>>>>>>>> KEY <<<<<<<<<<<<<<<<<<<<<<<<<<< > < > SKY/WX - Sky Condition/Present Weather < > TMP - Temperature in Fahrenheit < > DP - Dew Point in Fahrenheit < > RH - Relative Humidity in Percent < > WIND - Direction (from) and Speed in MPH < > PRES - Mean Sea Level Pressure (inches of Hg) < > WCI - Wind Chill Index < > VSB - VISIBILITY IN MILES < > HX - HEAT INDEX < > TC - TEMPERATURE IN CELSIUS < > VRB - VARIABLE WIND DIRECTION < > < >>>>>>>>>>>>>>>>>>>>>>>>>>>> KEY <<<<<<<<<<<<<<<<<<<<<<<<<<<

USA.gov is the U.S. government's official web portal to all federal, state and local government web resources and services.